Date String (YYYY-MM-DD hh:mm:ss) UTC,Instrument flags,absolute air pressure of the measurement (hPa),sample flow rate (lpm),inlet stack bypass flow (lpm),air temperature of the measurement (°C),ambient temperature measured by the external sensor (°C),aerosol sample conditioner tube jacket temperature (°C),OPC LED temperature (°C),internal box temperature (°C),relative humidity of the measurement (%),span deviation,mass concentration of particles derived from Lorenz-Mie calculation of OPC scattering (μg/m³),mass concentration of particles derived from Lorenz-Mie calculation of OPC scattering (μg/m³),mass concentration of particles derived from Lorenz-Mie calculation of OPC scattering (μg/m³)
DateTimeUTC,F1_M11,P_M11,Q1_M11,Q2_M11,T1_M11,T2_M11,T3_M11,T4_M11,T5_M11,U1_M11,ZSPAN_M11,X0_M11,X2_M11,X1_M11
2023-08-16 21:00:00,SystemResetWarning,0831.6,5.00,000.00,028.6,027.0,000.0,036.8,030.3,23.5,0000.0,0011.56,0004.15,0003.64
2023-08-16 21:01:00,SystemResetWarning,0831.6,4.99,000.00,028.6,026.5,000.0,036.7,030.2,23.9,0000.0,0011.57,0004.17,0003.65
2023-08-16 21:02:00,SystemResetWarning,0831.6,5.00,000.00,028.5,025.1,000.0,036.6,029.9,23.7,0000.0,0011.22,0004.16,0003.65
2023-08-16 21:03:00,SystemResetWarning,0831.5,5.02,000.00,028.5,025.1,000.0,036.6,029.8,24.3,0000.0,0010.59,0004.17,0003.64
2023-08-16 21:04:00,SystemResetWarning,0831.4,4.99,000.00,028.5,025.5,000.0,036.6,029.9,24.5,0000.0,0010.47,0004.19,0003.64
2023-08-16 21:05:00,SystemResetWarning,0831.5,5.00,000.00,028.5,025.9,000.0,036.7,030.0,24.1,0000.0,0009.60,0004.18,0003.64
2023-08-16 21:06:00,SystemResetWarning,0831.5,5.00,000.00,028.5,026.3,000.0,036.7,030.1,24.1,0000.0,0009.27,0004.20,0003.65
2023-08-16 21:07:00,SystemResetWarning,0831.6,5.01,000.00,028.5,026.7,000.0,036.7,030.2,24.6,0000.0,0009.31,0004.21,0003.66
2023-08-16 21:08:00,SystemResetWarning,0831.6,5.00,000.00,028.6,027.1,000.0,036.8,030.3,23.8,0000.0,0009.41,0004.22,0003.68
2023-08-16 21:09:00,SystemResetWarning,0831.6,4.98,000.00,028.6,026.5,000.0,036.7,030.2,23.4,0000.0,0009.30,0004.25,0003.71
2023-08-16 21:10:00,SystemResetWarning,0831.6,5.00,000.00,028.6,025.0,000.0,036.6,029.9,22.8,0000.0,0009.47,0004.28,0003.74
2023-08-16 21:11:00,SystemResetWarning,0831.7,5.02,000.00,028.5,025.0,000.0,036.6,029.9,23.3,0000.0,0009.27,0004.26,0003.75
2023-08-16 21:12:00,SystemResetWarning,0831.6,5.00,000.00,028.5,025.4,000.0,036.6,029.9,24.2,0000.0,0009.45,0004.29,0003.78
2023-08-16 21:13:00,SystemResetWarning,0831.6,5.00,000.00,028.5,025.8,000.0,036.7,030.0,24.8,0000.0,0009.73,0004.33,0003.79
2023-08-16 21:14:00,SystemResetWarning,0831.5,5.00,000.00,028.5,026.2,000.0,036.7,030.1,24.1,0000.0,0009.83,0004.34,0003.82
2023-08-16 21:15:00,SystemResetWarning,0831.5,5.00,000.00,028.6,026.7,000.0,036.8,030.2,23.2,0000.0,0009.86,0004.35,0003.84
2023-08-16 21:16:00,SystemResetWarning,0831.5,5.00,000.00,028.6,027.0,000.0,036.8,030.4,23.5,0000.0,0009.94,0004.32,0003.84
2023-08-16 21:17:00,SystemResetWarning,0831.6,4.99,000.00,028.6,026.4,000.0,036.7,030.2,23.1,0000.0,0009.83,0004.32,0003.85
2023-08-16 21:18:00,SystemResetWarning,0831.5,5.00,000.00,028.6,025.0,000.0,036.7,029.9,24.1,0000.0,0009.49,0004.30,0003.86
2023-08-16 21:19:00,SystemResetWarning,0831.5,5.01,000.00,028.5,024.9,000.0,036.6,029.9,24.9,0000.0,0009.20,0004.33,0003.86
2023-08-16 21:20:00,SystemResetWarning,0831.6,5.01,000.00,028.5,025.3,000.0,036.6,029.8,25.0,0000.0,0008.93,0004.32,0003.85
2023-08-16 21:21:00,SystemResetWarning,0831.6,4.99,000.00,028.4,025.7,000.0,036.7,029.9,25.8,0000.0,0009.55,0004.33,0003.86
2023-08-16 21:22:00,SystemResetWarning,0831.6,5.00,000.00,028.5,026.1,000.0,036.7,030.1,25.6,0000.0,0009.86,0004.36,0003.87
2023-08-16 21:23:00,SystemResetWarning,0831.6,5.00,000.00,028.5,026.6,000.0,036.8,030.2,25.3,0000.0,0009.90,0004.38,0003.87
2023-08-16 21:24:00,SystemResetWarning,0831.6,5.01,000.00,028.6,027.0,000.0,036.8,030.3,24.9,0000.0,0009.78,0004.38,0003.87
2023-08-16 21:25:00,SystemResetWarning,0831.6,5.00,000.00,028.6,026.3,000.0,036.7,030.2,24.6,0000.0,0010.47,0004.39,0003.86
2023-08-16 21:26:00,SystemResetWarning,0831.6,4.99,000.00,028.5,024.8,000.0,036.6,029.9,24.3,0000.0,0010.76,0004.39,0003.85
2023-08-16 21:27:00,SystemResetWarning,0831.6,5.02,000.00,028.5,024.8,000.0,036.6,029.8,24.4,0000.0,0010.78,0004.39,0003.86
2023-08-16 21:28:00,SystemResetWarning,0831.6,4.99,000.00,028.4,025.1,000.0,036.6,029.8,24.5,0000.0,0010.80,0004.39,0003.86
2023-08-16 21:29:00,SystemResetWarning,0831.6,5.00,000.00,028.4,025.5,000.0,036.7,029.8,24.8,0000.0,0011.37,0004.42,0003.86
2023-08-16 21:30:00,SystemResetWarning,0831.6,5.00,000.00,028.4,026.0,000.0,036.7,030.0,24.1,0000.0,0011.52,0004.41,0003.84
2023-08-16 21:31:00,SystemResetWarning,0831.6,5.01,000.00,028.5,026.5,000.0,036.7,030.2,23.0,0000.0,0012.00,0004.41,0003.85
2023-08-16 21:32:00,SystemResetWarning,0831.5,4.99,000.00,028.5,026.9,000.0,036.8,030.3,23.5,0000.0,0011.66,0004.39,0003.85
2023-08-16 21:33:00,SystemResetWarning,0831.5,4.99,000.00,028.6,026.9,000.0,036.8,030.3,21.7,0000.0,0011.01,0004.39,0003.84
2023-08-16 21:34:00,SystemResetWarning,0831.5,5.00,000.00,028.6,025.5,000.0,036.7,030.0,21.7,0000.0,0011.00,0004.40,0003.83
2023-08-16 21:35:00,SystemResetWarning,0831.4,5.01,000.00,028.5,024.6,000.0,036.6,029.8,22.6,0000.0,0011.20,0004.38,0003.82
2023-08-16 21:36:00,SystemResetWarning,0831.4,5.00,000.00,028.4,024.8,000.0,036.6,029.7,22.9,0000.0,0010.72,0004.36,0003.82
2023-08-16 21:37:00,SystemResetWarning,0831.4,5.00,000.00,028.4,025.2,000.0,036.6,029.7,23.7,0000.0,0010.42,0004.36,0003.82
2023-08-16 21:38:00,SystemResetWarning,0831.4,5.01,000.00,028.4,025.7,000.0,036.7,029.9,24.2,0000.0,0010.41,0004.38,0003.82
2023-08-16 21:39:00,SystemResetWarning,0831.4,5.00,000.00,028.4,026.1,000.0,036.7,030.0,22.3,0000.0,0010.36,0004.39,0003.81
2023-08-16 21:40:00,SystemResetWarning,0831.4,5.00,000.00,028.5,026.6,000.0,036.7,030.1,22.9,0000.0,0010.04,0004.37,0003.78
2023-08-16 21:41:00,SystemResetWarning,0831.4,5.00,000.00,028.5,026.9,000.0,036.8,030.3,22.4,0000.0,0010.33,0004.36,0003.76
2023-08-16 21:42:00,SystemResetWarning,0831.4,4.99,000.00,028.6,027.0,000.0,036.8,030.3,22.3,0000.0,0010.44,0004.33,0003.73
2023-08-16 21:43:00,SystemResetWarning,0831.4,4.98,000.00,028.6,025.7,000.0,036.7,030.0,22.7,0000.0,0010.40,0004.33,0003.71
2023-08-16 21:44:00,SystemResetWarning,0831.3,5.02,000.00,028.5,024.6,000.0,036.6,029.7,22.8,0000.0,0010.56,0004.28,0003.68
2023-08-16 21:45:00,SystemResetWarning,0831.4,5.00,000.00,028.4,024.8,000.0,036.5,029.7,21.9,0000.0,0010.40,0004.23,0003.66
2023-08-16 21:46:00,SystemResetWarning,0831.3,5.00,000.00,028.4,025.2,000.0,036.6,029.7,22.0,0000.0,0010.77,0004.24,0003.64
2023-08-16 21:47:00,SystemResetWarning,0831.3,5.00,000.00,028.4,025.6,000.0,036.6,029.9,22.1,0000.0,0010.57,0004.25,0003.62
2023-08-16 21:48:00,SystemResetWarning,0831.3,5.00,000.00,028.4,026.1,000.0,036.7,030.0,21.8,0000.0,0010.86,0004.30,0003.60
2023-08-16 21:49:00,SystemResetWarning,0831.3,5.00,000.00,028.5,026.6,000.0,036.7,030.2,21.9,0000.0,0010.92,0004.32,0003.60
2023-08-16 21:50:00,SystemResetWarning,0831.3,5.00,000.00,028.5,027.0,000.0,036.8,030.3,21.9,0000.0,0011.27,0004.33,0003.57
2023-08-16 21:51:00,SystemResetWarning,0831.3,5.00,000.00,028.6,027.1,000.0,036.8,030.4,21.8,0000.0,0011.47,0004.32,0003.57
2023-08-16 21:52:00,SystemResetWarning,0831.3,4.99,000.00,028.6,025.9,000.0,036.7,030.0,21.9,0000.0,0011.29,0004.32,0003.57
2023-08-16 21:53:00,SystemResetWarning,0831.3,5.01,000.00,028.5,024.8,000.0,036.6,029.8,22.7,0000.0,0010.76,0004.30,0003.56
2023-08-16 21:54:00,SystemResetWarning,0831.3,5.01,000.00,028.4,024.9,000.0,036.6,029.8,22.7,0000.0,0010.48,0004.31,0003.55
2023-08-16 21:55:00,SystemResetWarning,0831.3,5.00,000.00,028.4,025.3,000.0,036.6,029.8,22.8,0000.0,0011.00,0004.32,0003.56
2023-08-16 21:56:00,SystemResetWarning,0831.3,4.99,000.00,028.4,025.7,000.0,036.7,029.9,25.8,0000.0,0011.32,0004.33,0003.56
2023-08-16 21:57:00,SystemResetWarning,0831.3,5.00,000.00,028.4,026.2,000.0,036.7,030.1,24.6,0000.0,0010.87,0004.32,0003.56
2023-08-16 21:58:00,SystemResetWarning,0831.3,5.00,000.00,028.5,026.6,000.0,036.7,030.2,23.9,0000.0,0011.83,0004.29,0003.57
2023-08-16 21:59:00,SystemResetWarning,0831.3,4.99,000.00,028.6,027.0,000.0,036.8,030.3,22.9,0000.0,0011.64,0004.25,0003.57
